This demonstration page uses our WeatherBlox Daily Observations layout. Learn more.

Left ArrowRight Arrow

41.86663, -103.66717

Hourly Observations for June 3, 2021

Temp ( °F °C ) Dew Point ( °F °C ) Humidity (%) Winds ( mph kmh ) Pressure ( in mb ) Visibility ( mi km ) Precip ( " mm )
12:53 am 00:53 Clear 57 13.9 47 8.3 69 69 E 5 7 29.90 1012 10 16 N/A
1:53 am 01:53 Clear 58 14.4 48 8.9 70 70 N N/A 29.89 1012 10 16 N/A
2:53 am 02:53 Clear 56 13.3 47 8.3 72 72 N N/A 29.89 1012 10 16 N/A
3:53 am 03:53 Clear 51 10.6 47 8.3 86 86 N 5 7 29.90 1012 10 16 N/A
4:53 am 04:53 Clear 50 10 47 8.3 89 89 NNE 6 9 29.90 1013 10 16 N/A
5:53 am 05:53 Sunny 49 9.4 46 7.8 90 90 N N/A 29.91 1013 10 16 N/A
6:53 am 06:53 Sunny 60 15.6 51 10.6 72 72 N N/A 29.90 1013 10 16 N/A
7:53 am 07:53 Sunny 65 18.3 52 11.1 63 63 N N/A 29.90 1013 10 16 N/A
8:53 am 08:53 Sunny 69 20.6 60 15.6 73 73 N N/A 29.91 1013 10 16 N/A
9:53 am 09:53 Sunny 75 23.9 66 18.9 74 74 WNW 5 7 29.90 1013 10 16 N/A
10:53 am 10:53 Sunny 79 26.1 73 22.8 82 82 VRB 3 6 29.89 1012 10 16 N/A
11:53 am 11:53 Sunny 83 28.3 77 25 82 82 VRB 5 7 29.87 1012 10 16 N/A
12:53 pm 12:53 Sunny 87 30.6 83 28.3 88 88 WNW 9 15 29.85 1011 10 16 N/A
1:53 pm 13:53 Sunny 88 31.1 40 4.4 18 18 W 6 9 29.84 1010 10 16 N/A
2:53 pm 14:53 Sunny 89 31.7 42 5.6 19 19 SSW 6 9 29.82 1010 10 16 N/A
3:53 pm 15:53 Sunny 89 31.7 43 6.1 20 20 W 6 9 29.82 1010 10 16 N/A
4:53 pm 16:53 Mostly Sunny 89 31.7 44 6.7 21 21 N N/A 29.81 1010 10 16 N/A
5:53 pm 17:53 Sunny 87 30.6 44 6.7 22 22 VRB 3 6 29.81 1010 10 16 N/A
6:53 pm 18:53 Sunny 86 30 47 8.3 26 26 W 6 9 29.80 1009 10 16 N/A
7:53 pm 19:53 Sunny 80 26.7 51 10.6 37 37 NE 7 11 29.81 1010 10 16 N/A
8:53 pm 20:53 Clear 72 22.2 50 10 46 46 NNE 8 13 29.83 1010 10 16 N/A
9:53 pm 21:53 Clear 69 20.6 51 10.6 53 53 E 9 15 29.85 1011 10 16 N/A
10:53 pm 22:53 Clear 67 19.4 49 9.4 53 53 N N/A 29.84 1011 10 16 N/A
11:53 pm 23:53 Clear 61 16.1 49 9.4 65 65 ENE 5 7 29.84 1010 10 16 N/A

Powered by AerisWeather